• In Hungary
  • List of Countries
  • For 7 days
  • Water Temperature
  • Satellite Maps
  • Weather Map
  • News
  • Weather Widgets
  • user-avatar
    Login

    Hourly Weather Kashan

    Today, 18 January, Thursday

    Time Temperature Precipitation Wind Pressure Humidity
    00:00 +6°C° 0 mm 1 mps 667 mmHg 44%
    01:00 +6°C° 0 mm 1 mps 667 mmHg 45%
    02:00 +6°C° 0 mm 1 mps 667 mmHg 45%
    03:00 +5°C° 0 mm 1 mps 667 mmHg 46%
    04:00 +5°C° 0 mm 1 mps 667 mmHg 47%
    05:00 +4°C° 0 mm 1 mps 667 mmHg 48%
    06:00 +4°C° 0 mm 1 mps 667 mmHg 50%
    07:00 +5°C° 0 mm 1 mps 668 mmHg 45%
    08:00 +7°C° 0 mm 1 mps 668 mmHg 40%
    09:00 +8°C° 0 mm 1 mps 669 mmHg 36%
    10:00 +9°C° 0 mm 1 mps 669 mmHg 32%
    11:00 +9°C° 0 mm 2 mps 668 mmHg 29%
    12:00 +10°C° 0 mm 2 mps 668 mmHg 26%
    13:00 +12°C° 0 mm 2 mps 668 mmHg 25%
    14:00 +12°C° 0 mm 2 mps 668 mmHg 23%
    15:00 +13°C° 0 mm 2 mps 668 mmHg 22%
    16:00 +10°C° 0 mm 2 mps 668 mmHg 24%
    17:00 +9°C° 0 mm 2 mps 668 mmHg 27%
    18:00 +8°C° 0 mm 2 mps 668 mmHg 29%
    19:00 +8°C° 0 mm 2 mps 668 mmHg 29%
    20:00 +8°C° 0 mm 2 mps 668 mmHg 29%
    21:00 +7°C° 0 mm 2 mps 668 mmHg 29%
    22:00 +7°C° 0 mm 2 mps 668 mmHg 29%
    23:00 +6°C° 0 mm 2 mps 667 mmHg 30%

    Tomorrow, 19 January, Friday

    Time Temperature Precipitation Wind Pressure Humidity
    00:00 +6°C° 0 mm 2 mps 667 mmHg 31%
    01:00 +6°C° 0 mm 1 mps 667 mmHg 31%
    02:00 +6°C° 0 mm 1 mps 667 mmHg 32%
    03:00 +6°C° 0 mm 1 mps 667 mmHg 33%
    04:00 +5°C° 0 mm 1 mps 667 mmHg 33%
    05:00 +5°C° 0 mm 1 mps 667 mmHg 34%
    06:00 +5°C° 0 mm 1 mps 667 mmHg 34%
    07:00 +6°C° 0 mm 1 mps 668 mmHg 31%
    08:00 +7°C° 0 mm 2 mps 668 mmHg 27%
    09:00 +9°C° 0 mm 2 mps 669 mmHg 23%
    10:00 +10°C° 0 mm 2 mps 668 mmHg 21%
    11:00 +11°C° 0 mm 3 mps 668 mmHg 19%
    12:00 +13°C° 0 mm 3 mps 668 mmHg 17%
    13:00 +13°C° 0 mm 4 mps 667 mmHg 16%
    14:00 +13°C° 0 mm 4 mps 667 mmHg 16%
    15:00 +14°C° 0 mm 4 mps 667 mmHg 15%
    16:00 +12°C° 0 mm 4 mps 667 mmHg 18%
    17:00 +11°C° 0 mm 3 mps 667 mmHg 20%
    18:00 +9°C° 0 mm 3 mps 667 mmHg 23%
    19:00 +9°C° 0 mm 3 mps 667 mmHg 23%
    20:00 +9°C° 0 mm 2 mps 667 mmHg 23%
    21:00 +8°C° 0 mm 2 mps 667 mmHg 24%
    22:00 +8°C° 0 mm 2 mps 667 mmHg 24%
    23:00 +8°C° 0 mm 2 mps 666 mmHg 24%

    Day after tomorrow, 20 January, Saturday

    Time Temperature Precipitation Wind Pressure Humidity
    00:00 +7°C° 0 mm 2 mps 666 mmHg 25%
    01:00 +7°C° 0 mm 2 mps 666 mmHg 27%
    02:00 +7°C° 0 mm 3 mps 666 mmHg 29%
    03:00 +5°C° 0 mm 3 mps 665 mmHg 30%
    04:00 +5°C° 0 mm 3 mps 665 mmHg 33%
    05:00 +5°C° 0 mm 3 mps 665 mmHg 36%
    06:00 +5°C° 0 mm 4 mps 665 mmHg 39%
    07:00 +6°C° 0.1 mm 5 mps 665 mmHg 41%
    08:00 +7°C° 0.1 mm 6 mps 666 mmHg 43%
    09:00 +8°C° 0.1 mm 7 mps 667 mmHg 45%
    10:00 +8°C° 0.2 mm 6 mps 667 mmHg 47%
    11:00 +8°C° 0.2 mm 5 mps 666 mmHg 49%
    12:00 +8°C° 0.2 mm 4 mps 666 mmHg 51%
    13:00 +8°C° 0.1 mm 4 mps 666 mmHg 48%
    14:00 +8°C° 0.1 mm 4 mps 666 mmHg 44%
    15:00 +10°C° 0.1 mm 4 mps 666 mmHg 41%
    16:00 +8°C° 0 mm 4 mps 667 mmHg 43%
    17:00 +7°C° 0 mm 4 mps 667 mmHg 46%
    18:00 +7°C° 0 mm 3 mps 668 mmHg 48%
    19:00 +7°C° 0 mm 3 mps 669 mmHg 49%
    20:00 +5°C° 0 mm 3 mps 669 mmHg 50%
    21:00 +5°C° 0 mm 3 mps 670 mmHg 51%
    22:00 +4°C° 0 mm 3 mps 670 mmHg 51%
    23:00 +4°C° 0 mm 3 mps 670 mmHg 51%

    21 January, Sunday

    Time Temperature Precipitation Wind Pressure Humidity
    00:00 +3°C° 0 mm 3 mps 670 mmHg 51%
    01:00 +3°C° 0 mm 3 mps 670 mmHg 53%
    02:00 +3°C° 0 mm 3 mps 670 mmHg 54%
    03:00 +2°C° 0 mm 3 mps 670 mmHg 55%
    04:00 +2°C° 0 mm 3 mps 671 mmHg 57%
    05:00 +2°C° 0 mm 3 mps 671 mmHg 58%
    06:00 +1°C° 0 mm 3 mps 671 mmHg 59%
    07:00 +1°C° 0 mm 4 mps 671 mmHg 55%
    08:00 +4°C° 0 mm 4 mps 672 mmHg 51%
    09:00 +5°C° 0 mm 4 mps 672 mmHg 46%
    10:00 +6°C° 0 mm 4 mps 672 mmHg 43%
    11:00 +7°C° 0 mm 4 mps 671 mmHg 39%
    12:00 +8°C° 0 mm 4 mps 671 mmHg 36%
    13:00 +8°C° 0 mm 4 mps 670 mmHg 35%
    14:00 +10°C° 0 mm 4 mps 670 mmHg 34%
    15:00 +10°C° 0 mm 4 mps 670 mmHg 33%
    16:00 +9°C° 0 mm 3 mps 670 mmHg 36%
    17:00 +8°C° 0 mm 3 mps 670 mmHg 38%
    18:00 +7°C° 0 mm 2 mps 670 mmHg 41%
    19:00 +7°C° 0 mm 2 mps 671 mmHg 42%
    20:00 +6°C° 0 mm 2 mps 671 mmHg 43%
    21:00 +6°C° 0 mm 2 mps 671 mmHg 44%
    22:00 +6°C° 0 mm 2 mps 671 mmHg 45%
    23:00 +5°C° 0 mm 2 mps 671 mmHg 46%

    22 January, Monday

    Time Temperature Precipitation Wind Pressure Humidity
    00:00 +5°C° 0 mm 2 mps 671 mmHg 46%
    01:00 +5°C° 0 mm 2 mps 670 mmHg 46%
    02:00 +5°C° 0 mm 1 mps 670 mmHg 46%
    03:00 +5°C° 0 mm 1 mps 670 mmHg 45%
    04:00 +5°C° 0 mm 1 mps 670 mmHg 45%
    05:00 +5°C° 0 mm 1 mps 670 mmHg 44%
    06:00 +4°C° 0 mm 1 mps 670 mmHg 43%
    07:00 +6°C° 0 mm 1 mps 670 mmHg 37%
    08:00 +9°C° 0 mm 1 mps 671 mmHg 31%
    09:00 +11°C° 0 mm 1 mps 672 mmHg 25%
    10:00 +12°C° 0 mm 1 mps 671 mmHg 22%
    11:00 +13°C° 0 mm 2 mps 671 mmHg 19%
    12:00 +14°C° 0 mm 2 mps 670 mmHg 16%
    13:00 +15°C° 0 mm 2 mps 670 mmHg 16%
    14:00 +15°C° 0 mm 2 mps 670 mmHg 15%
    15:00 +16°C° 0 mm 2 mps 669 mmHg 14%
    16:00 +14°C° 0 mm 2 mps 669 mmHg 17%
    17:00 +13°C° 0 mm 2 mps 669 mmHg 19%
    18:00 +10°C° 0 mm 2 mps 668 mmHg 22%
    19:00 +10°C° 0 mm 2 mps 668 mmHg 22%
    20:00 +10°C° 0 mm 2 mps 668 mmHg 22%
    21:00 +9°C° 0 mm 2 mps 668 mmHg 23%
    22:00 +9°C° 0 mm 2 mps 668 mmHg 23%
    23:00 +9°C° 0 mm 2 mps 667 mmHg 23%

    23 January, Tuesday

    Time Temperature Precipitation Wind Pressure Humidity
    00:00 +8°C° 0 mm 2 mps 667 mmHg 23%
    01:00 +8°C° 0 mm 2 mps 667 mmHg 24%
    02:00 +9°C° 0 mm 1 mps 667 mmHg 25%
    03:00 +8°C° 0 mm 1 mps 666 mmHg 26%
    04:00 +8°C° 0 mm 1 mps 667 mmHg 26%
    05:00 +8°C° 0 mm 1 mps 667 mmHg 27%
    06:00 +7°C° 0 mm 1 mps 667 mmHg 28%
    07:00 +9°C° 0 mm 1 mps 667 mmHg 25%
    08:00 +10°C° 0 mm 1 mps 668 mmHg 23%
    09:00 +12°C° 0 mm 1 mps 668 mmHg 20%
    10:00 +13°C° 0 mm 2 mps 668 mmHg 18%
    11:00 +14°C° 0 mm 2 mps 668 mmHg 17%
    12:00 +16°C° 0 mm 2 mps 667 mmHg 15%
    13:00 +16°C° 0 mm 2 mps 667 mmHg 15%
    14:00 +16°C° 0 mm 2 mps 667 mmHg 14%
    15:00 +17°C° 0 mm 2 mps 667 mmHg 14%
    16:00 +15°C° 0 mm 2 mps 667 mmHg 16%
    17:00 +14°C° 0 mm 2 mps 667 mmHg 18%
    18:00 +13°C° 0 mm 2 mps 667 mmHg 20%
    19:00 +12°C° 0 mm 2 mps 667 mmHg 20%
    20:00 +12°C° 0 mm 2 mps 667 mmHg 20%
    21:00 +11°C° 0 mm 1 mps 667 mmHg 20%
    22:00 +11°C° 0 mm 1 mps 667 mmHg 21%
    23:00 +9°C° 0 mm 2 mps 666 mmHg 22%
    Show more